Location: Eschertshofen
(49.3064°N, 11.5756°E)
Time: 12:47:14
(UTC+00:00)

Cosmos 1626 - Pass Details

Date: 18 September 2020
Orbit: 490 x 495 km, 82.5° (Epoch: 23 October)

Event Time Altitude Azimuth Distance (km) Brightness Sun altitude
Rises 18:38:04 0° 5° (N) 2,591 5.9 -13.4°
Reaches altitude 10° 18:40:56 10° 29° (NNE) 1,700 4.7 -13.8°
Enters shadow 18:42:57 15° 62° (ENE) 1,407 4.0 -14.1°
